Weather Service Report


635 
ASUS43 KTOP 281808
RWRKS 

WEATHER ROUNDUP FOR KANSAS
NATIONAL WEATHER SERVICE GOODLAND KS
100 PM CDT THU AUG 28 2014

NOTE:  "FAIR" INDICATES FEW OR NO CLOUDS BELOW 12,000 FEET WITH NO
SIGNIFICANT WEATHER AND/OR OBSTRUCTIONS TO VISIBILITY.

KSZ001>006-013>018-027>032-041>047-281900-
NORTHWEST KANSAS
  
CITY           SKY/WX    TMP DP  RH WIND       PRES   REMARKS
GOODLAND       MOSUNNY   75  60  59 N15G24    30.02F                  
6HR MIN TEMP:  58; 6HR MAX TEMP:  76;                                

HAYS           CLOUDY    81  64  57 SW7       29.92F                  
HILL CITY      CLOUDY    73  64  73 NE5       29.94F                  
6HR MIN TEMP:  65; 6HR MAX TEMP:  73;                                

RUSSELL        CLOUDY    80  67  64 S17G24    29.90F                  
6HR MIN TEMP:  69; 6HR MAX TEMP:  81;                                

$$

KSZ061>065-074>080-084>089-281900-
SOUTHWEST KANSAS
  
CITY           SKY/WX    TMP DP  RH WIND       PRES   REMARKS
DODGE CITY     MOSUNNY   82  65  56 NW10      29.95S                  
6HR MIN TEMP:  67; 6HR MAX TEMP:  82;                                

ELKHART          N/A     79  55  43 NW14        N/A                   
GARDEN CITY    MOSUNNY   75  62  64 N10       29.98S                  
6HR MIN TEMP:  62; 6HR MAX TEMP:  75;                                

GREAT BEND     CLOUDY    82  64  54 S23G29    29.91F                  
LIBERAL        SUNNY     81  61  50 NW12G20   29.99F                  
PRATT          CLOUDY    79  63  57 S20       29.94S                  
$$

KSZ066>073-081>083-090>101-281900-
SOUTHEAST KANSAS
  
CITY           SKY/WX    TMP DP  RH WIND       PRES   REMARKS
CHANUTE        PTSUNNY   89  65  44 S10G21    29.98S                  
6HR MIN TEMP:  71; 6HR MAX TEMP:  90;                                

COFFEYVILLE    MOSUNNY   88  65  46 S8        29.96F                  
6HR MIN TEMP:  72; 6HR MAX TEMP:  92;                                

HUTCHINSON     LGT RAIN  72  68  87 SE14      29.95F                  
6HR MIN TEMP:  72; 6HR MAX TEMP:  74; 6HR PCP: TRACE;                

MEDICINE LODGE   N/A     76  69  79 SE9G17    29.93F                  
NEWTON         CLOUDY    73  66  78 SW6       30.01F                  
PARSONS        MOSUNNY   91  66  43 S9G20     29.98F                  
6HR MIN TEMP:  72; 6HR MAX TEMP:  91;                                

WICHITA INTL   RAIN      74  69  85 W6        29.96F                  
6HR MIN TEMP:  74; 6HR MAX TEMP:  81; 6HR PCP: TRACE;                

WICHITA JABRA  PTSUNNY   83  65  54 W9        29.96F                  
6HR MIN TEMP:  76; 6HR MAX TEMP:  87;                                

WICHITA MCCONL PTSUNNY   83  65  54 W7        29.97S                  
WINFIELD       MOSUNNY   91  62  37 S10       29.96F                  
6HR MIN TEMP:  73; 6HR MAX TEMP:  92;                                

$$

KSZ007>012-019>026-033>040-048>060-102>105-281900-
NORTHEAST KANSAS
  
CITY           SKY/WX    TMP DP  RH WIND       PRES   REMARKS
CONCORDIA      CLOUDY    76  68  76 S16       29.93S                  
6HR MIN TEMP:  69; 6HR MAX TEMP:  80; 6HR PCP:  0.17;                

EMPORIA        MOSUNNY   90  65  43 S15       29.96F                  
6HR MIN TEMP:  73; 6HR MAX TEMP:  91;                                

LAWRENCE       MOSUNNY   95  68  41 S9        29.94F HX  99           
6HR MIN TEMP:  78; 6HR MAX TEMP:  95;                                

MANHATTAN      LGT RAIN  75  71  87 NW3       29.94F                  
6HR MIN TEMP:  74; 6HR MAX TEMP:  78; 6HR PCP:  0.13;                

MARYSVILLE     PTSUNNY   77  72  83 S10       29.93F                  
OLATHE IND     MOSUNNY   91  67  44 S14G21    29.97F                  
6HR MIN TEMP:  74; 6HR MAX TEMP:  92;                                

OLATHE EXE     PTSUNNY   89  70  53 SW8G17    29.96F                  
6HR MIN TEMP:  73; 6HR MAX TEMP:  89;                                

SALINA         CLOUDY    76  68  76 S17       29.92S                  
6HR MIN TEMP:  73; 6HR MAX TEMP:  76; 6HR PCP:  0.07;                

TOPEKA BILLARD PTSUNNY   91  68  46 SW6       29.94S HX  95           
6HR MIN TEMP:  78; 6HR MAX TEMP:  91;                                

TOPEKA FORBES  MOSUNNY   93  64  38 SW14G22   29.95S                  
6HR MIN TEMP:  75; 6HR MAX TEMP:  93;                                

$$

Return to Home page


Western Regional Climate Center, wrcc@dri.edu